Wind_Speed
23 23 23 23 23 23 22 21 20 20 20 20 20 20 20 20 20 20 19 19 20 20 21 21 22 22 22 22 22 23 23 23 23 24 24 24 24 23 23 23 22 22 21 21 21 20 20 19 18
24 24 24 24 24 23 23 21 21 21 21 21 21 21 21 21 21 20 20 20 21 21 22 23 23 24 24 25 25 25 25 25 25 25 25 26 26 26 25 25 24 23 23 23 23 22 22 22 21
24 25 24 25 24 24 23 22 23 23 23 23 22 22 22 22 22 22 21 22 22 22 23 24 25 25 26 26 27 27 27 27 27 27 27 27 27 27 27 27 26 25 25 24 24 24 23 23 23
24 25 25 25 24 23 23 23 23 24 24 24 24 24 24 24 24 23 23 23 24 25 25 26 26 27 28 28 28 29 29 29 29 29 29 29 29 29 29 29 28 28 27 27 26 26 25 25 25
23 24 24 24 24 24 24 24 24 24 25 24 24 25 25 25 25 26 26 26 26 27 27 28 28 29 30 30 31 31 31 31 31 31 31 31 32 31 31 31 30 30 29 29 29 28 27 27 26
23 24 24 23 24 24 24 24 24 25 25 25 25 25 26 26 27 27 28 28 29 29 29 30 30 31 31 32 33 33 34 34 34 34 34 34 34 34 33 33 33 32 32 31 31 30 29 29 28
22 23 23 23 24 23 24 24 24 24 24 25 25 26 26 28 29 29 29 30 31 31 31 32 32 33 33 34 34 35 36 36 37 36 36 36 36 36 36 36 35 35 34 34 33 32 32 30 30
23 23 22 22 23 23 24 25 25 24 25 25 26 27 28 29 30 30 31 32 32 33 34 34 34 35 36 36 37 37 38 39 39 40 39 39 39 39 39 38 38 37 36 36 35 34 34 33 32
23 23 22 22 23 23 24 25 25 25 26 27 27 28 29 30 31 32 32 33 33 34 35 36 37 37 38 38 39 39 40 41 42 42 42 42 42 41 41 41 40 40 39 38 37 37 36 35 34
23 22 22 23 23 23 24 25 25 26 27 27 28 30 30 31 32 32 33 34 34 35 36 37 38 39 39 40 40 40 41 42 43 44 44 44 44 44 43 43 42 42 41 41 40 39 38 37 36
22 22 23 23 23 23 24 25 25 26 26 27 28 30 31 31 32 33 33 34 35 36 37 38 39 39 40 40 40 41 42 43 43 44 44 45 45 45 45 44 44 44 43 42 42 41 40 39 38
21 22 22 22 22 23 23 24 25 26 26 27 29 30 31 33 33 33 34 34 35 36 37 38 39 39 40 41 41 42 42 43 43 43 44 46 46 47 46 46 45 45 45 44 43 43 42 41 40
21 21 22 22 22 22 23 24 25 25 26 28 29 29 30 32 33 33 33 34 35 36 38 39 39 40 41 42 42 43 43 43 43 44 45 46 47 47 47 48 47 47 46 46 45 45 45 44 43
21 21 21 22 22 23 23 24 24 24 26 27 28 29 30 31 32 32 33 33 34 36 37 38 39 40 41 43 43 43 44 44 45 45 46 47 48 48 48 49 49 49 48 47 47 47 47 46 44
21 21 21 21 22 23 24 23 23 25 26 26 27 28 29 30 31 32 33 34 35 36 37 37 38 40 41 42 43 44 44 45 46 47 47 48 49 48 48 49 50 50 49 49 49 48 48 46 46
21 21 21 20 21 23 24 23 24 25 26 27 28 29 30 31 32 33 34 35 35 35 35 36 37 38 39 40 41 42 43 44 45 47 48 48 49 49 49 50 51 51 51 51 50 50 50 50 49
21 21 21 21 22 23 24 24 24 25 26 27 28 29 30 32 32 32 32 32 33 34 35 36 37 38 39 39 40 41 41 42 44 45 47 48 49 49 50 50 52 52 53 52 51 51 51 51 50
22 22 22 23 23 24 24 24 24 25 26 27 28 29 30 31 30 30 31 32 33 34 34 36 37 38 38 39 39 40 41 42 43 46 47 48 49 50 50 50 51 52 53 52 52 52 52 53 52
24 24 23 23 24 25 25 25 24 25 26 27 28 28 28 29 30 30 31 32 33 33 34 34 35 36 37 38 39 40 41 42 44 46 47 49 50 50 50 50 51 51 52 52 52 52 52 54 53
25 25 24 24 25 25 25 25 25 25 26 27 27 27 27 28 30 30 31 32 32 32 33 33 34 35 37 38 39 39 40 42 44 44 45 46 47 48 49 50 50 50 51 51 52 52 53 54 54
26 26 25 25 26 26 26 25 24 25 25 26 26 26 27 28 30 30 31 32 32 32 33 33 34 35 37 38 39 40 41 41 42 42 42 43 45 46 47 49 48 49 50 51 52 52 53 53 54
26 26 26 26 26 26 26 26 23 24 24 25 25 25 27 28 30 30 30 30 31 32 32 32 33 34 36 37 38 39 40 40 40 40 40 42 44 45 46 47 47 48 50 50 51 50 51 51 52
27 26 26 26 26 26 25 27 23 23 23 24 25 26 27 28 29 29 29 29 30 30 31 31 32 33 34 35 36 37 38 38 39 39 39 40 42 44 46 46 47 48 49 50 51 50 49 49 50
27 27 27 27 27 27 25 26 24 23 23 24 25 26 26 28 28 28 28 28 29 29 30 30 31 32 32 33 34 35 36 36 37 37 37 38 40 42 44 47 47 48 48 48 48 49 48 48 48
27 27 27 27 27 26 25 26 25 23 23 24 25 26 27 28 27 27 27 27 27 27 29 29 30 31 31 32 33 33 33 34 35 36 35 37 38 39 40 43 44 46 47 46 46 47 47 45 45
27 27 27 28 27 26 25 25 24 23 23 25 26 27 27 27 27 27 27 26 25 26 27 28 29 30 30 31 31 32 31 32 33 33 34 35 36 37 37 39 40 42 43 45 44 44 44 43 43
28 27 27 28 28 27 26 25 24 24 24 25 27 27 27 27 27 26 25 25 25 25 27 28 29 29 30 30 31 30 30 30 31 32 33 34 34 35 36 37 38 37 39 41 42 41 41 41 42
29 28 28 28 29 28 28 26 25 24 24 26 26 27 27 26 26 25 24 24 25 25 26 28 29 28 28 28 28 28 27 28 28 29 30 31 32 33 34 33 34 35 36 37 39 38 38 39 40
29 29 29 29 30 30 29 27 25 25 25 26 26 27 27 26 25 24 23 23 24 26 26 27 28 27 27 27 27 26 26 26 27 27 28 30 32 32 32 31 31 31 32 33 35 36 36 37 38
30 30 29 30 30 30 30 28 26 26 26 26 26 26 26 26 24 23 22 23 24 25 26 26 26 26 27 27 26 25 25 25 25 25 26 27 29 30 30 30 29 30 30 31 32 34 35 35 36
Wind_Direction
235 235 235 234 235 235 236 235 236 237 237 237 239 241 244 247 248 251 251 250 249 249 250 250 251 251 252 251 251 252 254 255 256 256 257 258 258 259 259 259 260 262 263 264 264 265 267 269 271
235 235 236 236 236 237 237 238 237 239 240 240 241 243 246 248 249 251 251 250 250 251 251 252 253 254 254 254 254 253 254 255 256 256 257 258 258 259 260 261 261 261 262 265 265 265 266 268 270
237 236 237 237 238 239 240 240 240 241 243 244 245 246 247 249 250 251 251 251 252 253 253 253 254 255 256 256 256 256 256 255 256 256 257 258 258 258 259 260 261 262 262 263 265 266 267 268 270
238 237 238 239 240 241 242 241 241 243 244 245 246 247 249 251 252 253 253 254 255 256 256 256 256 257 257 257 257 257 257 257 257 257 257 258 259 258 259 260 261 262 263 263 264 266 266 267 269
238 238 240 241 243 243 243 242 242 243 244 246 247 249 250 252 254 255 256 257 258 259 259 259 259 259 259 258 259 258 258 258 258 258 258 258 259 259 259 259 260 261 262 262 263 265 265 266 268
240 241 242 243 244 243 244 244 245 246 246 247 249 252 254 255 256 256 257 258 259 260 261 262 262 261 260 260 260 260 260 259 259 259 259 259 259 259 259 259 260 260 261 261 263 263 265 265 266
241 242 243 243 244 245 246 247 248 249 250 251 252 253 255 256 257 259 259 260 260 261 261 261 262 262 261 261 261 261 261 260 259 259 259 259 259 259 260 260 260 260 260 261 262 263 263 265 265
242 242 242 243 245 246 248 249 250 251 252 254 255 255 256 257 259 260 261 262 262 262 262 262 262 262 263 263 262 262 262 261 260 260 260 260 260 259 259 259 259 259 260 260 261 262 263 263 264
243 243 243 244 246 247 250 252 253 254 255 256 257 257 257 259 261 262 262 263 264 263 263 263 263 263 264 264 264 263 263 262 262 261 260 259 259 259 259 259 259 259 259 259 260 260 262 262 262
244 245 244 245 247 249 251 253 254 255 256 257 259 260 260 261 262 263 263 264 264 264 264 265 265 265 265 265 265 265 264 264 263 262 261 259 259 258 258 258 259 259 259 259 259 260 261 262 262
244 245 245 246 248 250 252 254 256 257 258 260 261 262 263 264 264 264 265 265 265 265 265 264 265 265 265 265 265 265 265 264 263 262 261 259 258 257 257 258 258 258 258 259 259 259 260 261 262
244 243 245 247 249 250 253 254 256 258 260 262 263 265 265 265 265 266 266 266 266 267 266 265 265 265 265 266 266 266 266 265 263 263 261 260 259 258 257 257 257 258 258 258 258 259 260 260 261
244 244 246 248 250 253 255 257 259 262 263 264 265 266 267 268 268 267 267 267 267 268 268 268 267 266 266 266 267 266 265 264 263 263 262 261 260 259 257 256 256 256 256 257 257 259 259 259 259
245 246 247 249 252 254 257 260 263 265 266 267 267 268 268 270 270 270 270 270 269 269 270 269 269 268 268 268 267 266 265 264 264 264 263 262 260 259 258 256 256 257 256 256 257 258 258 258 258
246 247 248 250 253 257 260 262 266 267 268 268 269 269 270 271 273 273 273 272 271 271 271 271 271 270 270 270 269 267 266 265 265 264 263 262 260 259 258 257 256 256 256 257 257 257 257 258 258
245 247 249 251 255 259 262 265 267 269 270 271 271 271 272 273 274 275 275 274 273 273 273 273 273 272 272 272 271 269 268 267 265 264 264 263 261 259 258 258 256 256 256 257 257 258 257 257 258
246 249 251 253 257 261 264 267 269 272 273 274 275 275 275 275 276 276 276 275 274 274 273 273 274 273 273 273 272 271 269 269 267 265 264 264 262 260 258 258 257 256 257 258 257 258 258 258 258
248 252 254 257 259 262 265 268 270 273 275 277 278 278 278 277 277 276 276 276 275 275 275 275 274 274 273 273 272 272 271 270 270 268 266 265 263 260 259 258 258 257 257 257 257 257 257 258 257
251 254 256 258 260 263 266 269 272 275 278 279 279 279 278 278 278 277 277 277 277 277 277 277 276 275 274 275 273 273 274 274 273 271 268 265 263 261 259 259 258 258 258 258 258 257 257 258 257
252 255 257 259 262 265 267 271 274 278 280 280 280 279 279 280 280 280 279 279 279 278 278 277 277 276 276 276 276 275 275 276 275 273 269 265 262 261 260 259 259 259 259 259 258 258 258 258 258
253 256 259 261 263 266 270 272 276 278 279 280 280 280 282 284 283 282 281 280 279 279 280 279 279 278 278 277 277 276 278 278 276 272 270 267 264 261 260 258 258 259 259 259 258 258 257 258 258
254 257 260 263 265 269 273 276 276 278 279 279 280 282 284 286 286 286 284 282 280 281 282 282 281 282 282 280 279 278 278 279 277 273 271 269 265 262 260 259 260 260 260 259 258 258 257 258 259
254 257 260 263 265 269 274 278 279 280 280 281 283 286 287 288 289 289 287 284 282 283 284 283 284 285 284 283 282 280 280 280 278 274 273 270 267 263 261 261 261 261 259 259 258 257 257 257 260
253 256 259 262 265 270 274 279 281 282 283 284 286 288 290 292 292 291 289 286 286 286 286 284 285 285 285 286 285 284 283 280 278 276 274 271 269 265 262 262 261 261 260 259 258 257 257 259 260
252 256 260 263 266 271 276 279 282 284 286 287 288 291 295 296 295 293 291 289 288 287 286 285 287 289 290 291 288 288 285 282 280 276 274 272 271 268 264 265 264 262 261 259 259 257 257 259 260
252 255 260 265 268 272 275 278 282 286 288 290 291 294 297 297 294 290 290 290 290 291 290 288 290 292 294 294 292 291 287 284 280 277 277 275 273 270 267 268 267 264 263 260 258 255 256 258 259
250 253 258 264 267 272 274 277 280 285 288 291 293 296 298 296 293 291 290 290 292 292 293 294 293 294 296 295 294 291 290 286 282 279 278 276 275 274 273 270 268 268 264 261 259 256 257 257 258
249 252 257 262 268 272 275 278 283 286 290 293 295 297 300 296 293 291 290 289 291 294 295 297 297 297 298 298 297 295 292 289 287 283 281 279 277 276 276 271 270 269 267 263 259 258 258 258 259
248 251 256 261 266 272 276 279 283 287 291 294 297 298 300 298 294 290 290 291 293 297 299 300 299 298 298 299 298 295 293 293 291 287 284 282 281 280 276 273 272 271 267 263 262 260 258 259 261
248 251 256 261 266 271 276 279 282 287 291 293 297 297 298 299 295 290 291 294 295 298 301 300 300 300 301 301 301 297 297 295 294 292 290 289 286 282 278 275 274 271 267 265 264 261 260 260 262
Height
5819 5821 5823 5825 5827 5828 5829 5831 5832 5833 5835 5835 5836 5837 5838 5840 5841 5844 5844 5844 5844 5845 5846 5846 5847 5848 5849 5849 5850 5851 5851 5852 5853 5853 5854 5855 5855 5856 5856 5857 5858 5858 5859 5859 5859 5859 5860 5860 5860
5815 5817 5819 5821 5822 5823 5826 5828 5829 5829 5831 5831 5833 5834 5834 5835 5837 5838 5839 5840 5840 5841 5842 5842 5843 5844 5845 5845 5846 5847 5848 5848 5849 5850 5850 5851 5851 5852 5853 5853 5854 5854 5855 5855 5855 5856 5856 5856 5856
5810 5812 5815 5816 5817 5820 5822 5824 5825 5825 5826 5828 5829 5830 5830 5831 5832 5833 5835 5835 5836 5837 5838 5838 5839 5839 5840 5841 5842 5842 5843 5844 5845 5845 5846 5846 5847 5848 5848 5849 5850 5850 5851 5851 5852 5852 5852 5853 5853
5806 5808 5811 5813 5814 5815 5817 5819 5820 5821 5822 5823 5824 5825 5826 5827 5828 5829 5830 5831 5832 5832 5833 5833 5834 5835 5835 5836 5837 5837 5838 5839 5840 5841 5841 5842 5842 5843 5844 5844 5845 5846 5846 5847 5847 5848 5848 5848 5849
5802 5804 5806 5807 5809 5811 5812 5814 5815 5816 5818 5819 5820 5821 5821 5822 5823 5824 5825 5826 5826 5827 5827 5828 5829 5829 5830 5831 5831 5832 5833 5833 5834 5835 5836 5836 5837 5838 5838 5839 5840 5840 5841 5842 5842 5843 5843 5844 5844
5798 5799 5802 5803 5804 5806 5807 5809 5810 5811 5813 5814 5815 5816 5816 5818 5818 5819 5820 5820 5821 5821 5822 5822 5822 5823 5824 5825 5825 5826 5826 5827 5828 5829 5830 5831 5831 5832 5832 5833 5834 5835 5836 5836 5837 5837 5838 5838 5839
5794 5795 5796 5798 5799 5801 5803 5804 5805 5807 5808 5809 5810 5811 5811 5812 5812 5813 5814 5814 5815 5815 5816 5816 5816 5817 5817 5818 5818 5819 5819 5820 5821 5822 5823 5824 5824 5825 5826 5827 5828 5829 5829 5830 5831 5831 5832 5833 5833
5788 5791 5792 5793 5794 5796 5797 5798 5800 5801 5802 5803 5804 5805 5805 5806 5806 5807 5807 5808 5808 5809 5809 5809 5809 5810 5810 5810 5811 5811 5812 5812 5813 5814 5815 5816 5817 5818 5819 5820 5821 5821 5822 5823 5824 5825 5826 5826 5827
5784 5787 5787 5789 5790 5792 5792 5793 5794 5795 5796 5797 5798 5798 5799 5799 5800 5800 5801 5801 5801 5801 5801 5801 5802 5802 5802 5802 5803 5803 5803 5804 5804 5805 5806 5807 5808 5810 5810 5812 5813 5814 5815 5816 5817 5818 5819 5819 5820
5779 5781 5783 5784 5785 5786 5787 5787 5788 5789 5790 5791 5791 5791 5792 5793 5793 5793 5794 5794 5794 5793 5793 5793 5793 5793 5793 5794 5794 5794 5794 5794 5795 5795 5796 5798 5799 5800 5801 5803 5804 5805 5807 5808 5809 5810 5811 5812 5813
5774 5776 5777 5778 5779 5780 5781 5782 5782 5783 5784 5784 5784 5784 5785 5785 5785 5786 5786 5786 5786 5785 5785 5785 5785 5785 5785 5785 5785 5785 5785 5785 5785 5785 5786 5787 5789 5790 5792 5793 5795 5796 5798 5799 5801 5802 5803 5804 5806
5769 5771 5771 5773 5774 5775 5775 5776 5776 5777 5778 5778 5778 5777 5777 5777 5778 5778 5778 5778 5777 5777 5776 5776 5776 5776 5775 5775 5775 5775 5775 5775 5775 5775 5776 5776 5778 5780 5781 5783 5785 5787 5788 5790 5791 5793 5794 5796 5797
5764 5765 5766 5767 5768 5769 5769 5770 5770 5771 5771 5771 5771 5770 5770 5769 5769 5770 5770 5769 5769 5768 5767 5767 5767 5766 5766 5765 5765 5764 5764 5764 5764 5765 5765 5766 5767 5769 5771 5773 5775 5776 5778 5779 5782 5783 5785 5786 5788
5759 5760 5761 5762 5763 5763 5764 5764 5764 5765 5764 5764 5764 5763 5763 5762 5761 5761 5761 5761 5760 5759 5758 5757 5757 5756 5756 5755 5754 5754 5753 5753 5753 5754 5754 5755 5756 5757 5759 5761 5763 5765 5767 5769 5771 5773 5775 5776 5778
5754 5755 5756 5757 5757 5757 5758 5758 5759 5758 5757 5757 5757 5756 5755 5754 5754 5753 5752 5752 5751 5750 5748 5747 5746 5746 5745 5744 5743 5743 5742 5742 5742 5742 5742 5743 5744 5745 5747 5749 5752 5754 5756 5758 5760 5762 5764 5766 5768
5749 5750 5751 5752 5752 5752 5753 5753 5753 5751 5750 5750 5749 5749 5748 5747 5746 5744 5743 5742 5741 5740 5739 5738 5736 5735 5734 5733 5732 5731 5731 5730 5730 5730 5730 5730 5731 5733 5735 5737 5739 5742 5744 5746 5748 5751 5753 5755 5757
5743 5744 5745 5747 5746 5746 5746 5746 5746 5744 5743 5742 5741 5740 5739 5738 5737 5735 5734 5732 5731 5730 5729 5728 5726 5725 5724 5723 5721 5720 5719 5718 5717 5717 5717 5717 5717 5719 5721 5724 5726 5728 5730 5733 5735 5738 5740 5742 5745
5738 5739 5740 5740 5740 5740 5739 5740 5739 5737 5736 5735 5733 5732 5730 5729 5727 5726 5724 5722 5721 5719 5718 5717 5716 5714 5713 5712 5711 5709 5708 5706 5705 5704 5703 5703 5703 5705 5707 5710 5712 5714 5717 5719 5722 5724 5727 5729 5731
5732 5733 5733 5734 5733 5733 5733 5733 5732 5730 5728 5727 5725 5723 5722 5720 5718 5716 5714 5712 5711 5709 5708 5706 5705 5703 5702 5701 5699 5698 5696 5694 5692 5690 5689 5688 5688 5690 5693 5696 5698 5700 5703 5706 5708 5710 5712 5715 5717
5725 5726 5727 5727 5727 5726 5726 5725 5725 5723 5721 5719 5717 5715 5713 5711 5709 5707 5704 5702 5700 5699 5697 5696 5694 5692 5691 5689 5688 5686 5684 5682 5679 5677 5675 5674 5674 5676 5678 5681 5684 5686 5688 5690 5693 5696 5699 5701 5703
5719 5720 5720 5720 5720 5719 5718 5718 5718 5716 5713 5711 5709 5707 5705 5702 5699 5697 5694 5692 5690 5689 5687 5685 5683 5681 5679 5677 5675 5673 5671 5668 5666 5664 5662 5661 5661 5662 5665 5667 5670 5672 5674 5677 5679 5681 5684 5687 5689
5712 5713 5713 5713 5712 5712 5711 5710 5711 5708 5706 5704 5701 5699 5696 5693 5690 5687 5684 5682 5680 5678 5676 5674 5672 5670 5668 5665 5663 5660 5658 5656 5654 5651 5650 5649 5648 5649 5652 5654 5656 5658 5660 5662 5664 5666 5669 5672 5675
5704 5705 5705 5705 5704 5704 5704 5702 5703 5701 5698 5696 5693 5690 5687 5684 5681 5677 5674 5672 5669 5668 5666 5664 5662 5659 5656 5653 5650 5647 5645 5643 5641 5639 5638 5637 5637 5637 5638 5641 5642 5644 5646 5648 5650 5653 5656 5658 5661
5697 5698 5698 5697 5697 5697 5697 5694 5694 5693 5691 5688 5685 5682 5679 5675 5671 5668 5665 5662 5660 5658 5656 5654 5652 5649 5646 5643 5639 5636 5633 5631 5629 5627 5626 5625 5625 5624 5625 5627 5628 5630 5631 5634 5636 5640 5642 5645 5648
5690 5691 5691 5690 5689 5690 5689 5687 5687 5685 5683 5680 5677 5674 5670 5666 5662 5658 5655 5653 5650 5649 5647 5645 5643 5640 5637 5633 5629 5626 5622 5620 5618 5616 5615 5614 5613 5613 5613 5614 5614 5616 5618 5620 5623 5626 5630 5633 5635
5682 5683 5684 5683 5682 5682 5681 5679 5680 5678 5675 5672 5668 5665 5661 5657 5653 5650 5647 5645 5642 5640 5638 5637 5634 5631 5628 5624 5620 5616 5613 5610 5608 5606 5605 5604 5603 5602 5602 5603 5603 5604 5605 5608 5610 5614 5618 5621 5623
5674 5675 5676 5675 5674 5674 5673 5673 5672 5670 5668 5664 5661 5657 5653 5649 5645 5642 5640 5638 5635 5633 5631 5629 5626 5623 5619 5616 5612 5609 5605 5602 5600 5598 5596 5595 5594 5593 5592 5592 5592 5593 5594 5596 5599 5602 5606 5609 5611
5666 5667 5668 5667 5666 5665 5665 5665 5665 5663 5660 5657 5654 5650 5646 5642 5638 5635 5633 5631 5629 5626 5624 5621 5618 5615 5612 5608 5605 5602 5599 5596 5593 5591 5589 5587 5585 5584 5583 5583 5583 5584 5585 5587 5589 5592 5595 5598 5601
5658 5660 5660 5659 5659 5658 5657 5660 5658 5656 5653 5650 5647 5643 5639 5635 5632 5629 5627 5625 5623 5620 5617 5615 5612 5609 5605 5602 5598 5596 5593 5590 5587 5584 5582 5580 5578 5576 5575 5575 5575 5575 5577 5579 5581 5583 5585 5588 5590
5649 5651 5652 5653 5652 5651 5650 5653 5651 5649 5646 5643 5639 5636 5633 5629 5626 5623 5622 5619 5617 5615 5612 5609 5606 5603 5600 5596 5593 5590 5587 5584 5581 5578 5576 5573 5571 5569 5567 5567 5567 5567 5569 5571 5572 5574 5576 5578 5580